[[{"header":{"parameterUnit":"m.s-1","parameterCategory":1,"la1":30.2991,"la2":30.254,"lo1":-89.0895,"lo2":-89.0444,"dy":0.0017,"dx":0.0017,"nx":28,"ny":28,"refTime":"2023-07-29T21:00:00:Z","depth":0,"parameterNumber":2,"parameterNumberName":"U-component_of_WINDS"},"data":[0,0,0,0,0,0,0,0,0,0,0,0,0,0,0,0,0,0,0,0,0,0,0,0,0,0,0,0,0,0,0,0,0,0,0,0,0,0,0,0,0,0,0,0,0,0,0,0,0,0,0,0,0,0,0,0,0,0,4.5947,4.5948,0,4.6039,4.604,4.6041,4.5913,4.5908,4.5904,4.5899,4.5994,4.6,4.6007,0,0,0,0,0,0,0,0,0,0,0,0,0,4.5662,4.5668,4.5947,4.5949,4.595,4.6038,4.604,4.6041,4.5914,4.5908,4.5903,4.5897,4.5991,4.5999,4.6007,0,0,0,0,0,0,0,0,0,0,0,0,0,4.5773,4.567,4.5947,4.5897,4.5893,4.6038,4.604,4.6041,4.5915,4.5908,4.5901,4.5895,4.5989,4.5999,4.6009,4.6207,0,0,4.6039,4.6044,0,0,0,0,0,0,0,0,4.5767,4.5784,4.5903,4.5901,4.5897,4.5957,4.5973,4.6097,4.5917,4.5907,4.5899,4.5891,4.5987,4.5997,4.6029,4.6212,4.6216,4.604,4.6046,4.6051,4.6054,0,0,0,0,0,0,0,4.576,4.5779,4.5983,4.5905,4.5901,4.5869,4.5878,4.5996,4.5984,4.5907,4.5898,4.591,4.5984,4.602,4.603,4.6217,4.604,4.6049,4.6055,4.6059,4.6565,4.6572,0,0,0,0,0,0,4.5758,4.5774,4.598,4.5986,4.5814,4.588,4.5889,4.5945,4.5982,4.5981,4.5916,4.5904,4.6006,4.6019,4.6033,4.6266,4.6051,4.606,4.6066,4.6557,4.6566,4.6574,0,0,0,0,0,0,4.5752,4.5778,4.5977,4.5877,4.59,4.5892,4.5956,4.595,4.5985,4.5989,4.5986,4.5955,4.6001,4.6019,4.6164,4.6268,4.6065,4.6074,4.6549,4.656,4.657,4.6736,0,0,0,0,0,0,4.5745,4.5776,4.5852,4.588,4.5906,4.6107,4.5962,4.5957,4.6003,4.5988,4.6025,4.6024,4.5997,4.615,4.6174,4.6278,4.6082,4.6539,4.6554,4.6567,4.6721,4.6751,4.6777,0,0,0,0,0,4.5735,4.5896,4.5857,4.5882,4.6001,4.6114,4.6128,4.6093,4.6012,4.6088,4.609,4.6023,4.6253,4.6166,4.6192,4.6301,4.6533,4.655,4.6566,4.6709,4.6745,4.6776,0,0,0,0,0,0,4.5881,4.5899,4.5855,4.603,4.6071,4.6092,4.6186,4.6134,4.6199,4.6182,4.6136,4.6146,4.6301,4.6315,4.6218,4.6494,4.6379,4.6402,4.6479,4.6514,4.6541,4.6534,4.609,0,0,0,0,0,4.5933,4.6023,4.6034,4.6187,4.621,4.6195,4.6243,4.6212,4.6253,4.627,4.6282,4.6325,4.6406,4.6461,4.6536,4.6723,4.6728,4.681,4.6838,4.6861,4.6881,4.6979,4.7015,4.6629,4.6629,4.6628,0,0,4.6042,4.6063,4.6123,4.6217,4.6245,4.6339,4.621,4.6316,4.6385,4.6286,4.6423,4.6434,4.6478,4.6645,4.6719,4.6661,4.6989,4.6882,4.69,4.6908,4.6999,4.7036,4.7069,4.664,4.6638,4.6636,0,0,4.6289,4.6315,4.6444,4.6475,4.6519,4.6508,4.6539,4.6567,4.6571,4.6708,4.6635,4.6716,4.6858,4.6892,4.6927,4.7186,4.7126,4.7211,4.7357,4.7453,4.7483,4.751,4.7601,4.7634,4.7231,4.7232,4.7232,0,4.6419,4.6558,4.6517,4.6627,4.667,4.6584,4.6714,4.6746,4.6813,4.6844,4.6779,4.6954,4.6977,4.7149,4.7212,4.7245,4.7278,4.7207,4.7482,4.7509,4.7533,4.7619,4.7653,4.7242,4.7241,4.724,4.7239,0,4.6715,4.6812,4.6912,4.6977,4.7031,4.7151,4.7128,4.7187,4.7152,4.7147,4.7287,4.7312,4.739,4.7429,4.7396,4.7597,4.7559,4.749,4.7373,4.7581,4.766,4.7693,4.7256,4.7253,4.725,4.7247,0,0,4.7056,4.7097,4.7134,4.7162,4.7204,4.7278,4.7393,4.7469,4.752,4.7569,4.7664,4.7785,4.772,4.776,4.773,4.7815,4.8015,4.7734,4.7734,4.7784,4.8236,4.8287,4.8326,4.7976,4.7982,4.7987,4.8231,0,4.7301,4.75,4.7466,4.7659,4.7747,4.7667,4.7767,4.7803,4.7802,4.7876,4.7874,4.796,4.7869,4.7892,4.7973,4.7974,4.8105,4.7956,4.8063,4.8067,4.8053,4.8368,4.8423,4.8652,4.8262,4.8268,4.8272,0,4.7614,4.7673,4.7875,4.7901,4.7937,4.8027,4.8093,4.8166,4.8204,4.8197,4.8243,4.8196,4.831,4.8193,4.8348,4.8248,4.8289,4.8297,4.8304,4.8312,4.8181,4.8383,4.8725,4.8759,4.8321,4.8317,4.8313,0,4.784,4.7971,4.8108,4.8134,4.8169,4.8234,4.8252,4.8284,4.8331,4.8388,4.8418,4.8489,4.8527,4.8583,4.8556,4.8473,4.8716,4.8597,4.8712,4.8713,4.8766,4.8763,4.9119,4.8796,4.8796,4.8795,4.8794,0,4.8117,4.8243,4.821,4.8294,4.8432,4.8392,4.853,4.8537,4.8567,4.865,4.8585,4.8665,4.8626,4.8703,4.8683,4.8813,4.8832,4.8829,4.8821,4.8834,4.8834,4.8859,4.8842,4.8804,4.8802,4.88,4.8799,0,4.8393,4.8376,4.8519,4.854,4.8548,4.8649,4.8666,4.8744,4.8738,4.8844,4.8867,4.8857,4.8944,4.8923,4.9018,4.9004,4.9169,4.9143,4.9156,4.9149,4.9265,4.9254,4.9648,4.9697,4.9344,4.9348,4.9351,0,4.857,4.8665,4.8695,4.8746,4.8768,4.8852,4.8899,4.8863,4.8915,4.8966,4.9038,4.9118,4.9181,4.9324,4.9324,4.9396,4.937,4.9503,4.9381,4.9389,4.937,4.9364,4.9373,4.9528,4.9532,4.9535,4.9538,0,4.8885,4.8871,4.8942,4.901,4.9068,4.912,4.9166,4.9212,4.9179,4.924,4.9328,4.9377,4.9473,4.9554,4.962,4.9636,4.9582,4.9576,4.9606,4.9619,4.9622,4.962,4.9221,4.9567,4.9564,4.9562,4.9561,4.9559,4.9115,4.9195,4.9229,4.9309,4.934,4.9384,4.9457,4.946,4.9532,4.9607,4.9582,4.9682,4.9716,4.9799,4.9825,4.9901,4.9851,4.9895,4.9906,4.9918,4.9931,4.9611,4.9914,4.9913,4.9912,4.9911,4.9911,0,4.9425,4.9443,4.9517,4.9583,4.9646,4.9589,4.9636,4.9692,4.9781,4.9818,4.9881,4.9981,5.0058,5.0065,5.0138,5.0198,5.0175,5.0218,5.0213,5.0217,4.9973,4.9939,5.0236,5.0236,5.0236,5.0236,5.0236,5.0236,4.9594,4.9725,4.9716,4.9861,4.9877,4.9974,5.0006,5.0046,5.0075,5.0189,5.0253,5.0257,5.0282,5.0355,5.0423,5.0423,5.0452,5.0506,5.0496,5.0267,5.0235,5.0204,5.0171,5.0513,5.0513,5.0733,5.0735,5.0737]},{"header":{"parameterUnit":"m.s-1","parameterCategory":1,"la1":30.2991,"la2":30.254,"lo1":-89.0895,"lo2":-89.0444,"dy":0.0017,"dx":0.0017,"nx":28,"ny":28,"refTime":"2023-07-29T21:00:00:Z","depth":0,"parameterNumber":3,"parameterNumberName":"V-component_of_WINDS"},"data":[0,0,0,0,0,0,0,0,0,0,0,0,0,0,0,0,0,0,0,0,0,0,0,0,0,0,0,0,0,0,0,0,0,0,0,0,0,0,0,0,0,0,0,0,0,0,0,0,0,0,0,0,0,0,0,0,0,0,1.9803,1.9803,0,1.9855,1.9856,1.9856,1.9815,1.9813,1.9811,1.9809,1.9862,1.9865,1.9868,0,0,0,0,0,0,0,0,0,0,0,0,0,1.9666,1.9668,1.9803,1.9804,1.9804,1.9855,1.9856,1.9856,1.9815,1.9813,1.981,1.9808,1.9861,1.9865,1.9869,0,0,0,0,0,0,0,0,0,0,0,0,0,1.9722,1.9669,1.9803,1.979,1.9789,1.9855,1.9856,1.9857,1.9815,1.9813,1.981,1.9807,1.986,1.9865,1.9869,1.9951,0,0,1.9883,1.9885,0,0,0,0,0,0,0,0,1.9719,1.9727,1.9791,1.9791,1.979,1.9826,1.9827,1.9888,1.9816,1.9805,1.9809,1.9806,1.9852,1.9857,1.9873,1.9953,1.9955,1.9884,1.9886,1.9888,1.989,0,0,0,0,0,0,0,1.9715,1.9725,1.9823,1.9792,1.9791,1.978,1.9786,1.9838,1.9843,1.9806,1.9803,1.981,1.9851,1.9869,1.9874,1.9956,1.9883,1.9888,1.989,1.9892,2.0104,2.0106,0,0,0,0,0,0,1.9713,1.9722,1.9822,1.9825,1.9747,1.9785,1.9791,1.9817,1.9842,1.9844,1.9812,1.9808,1.9862,1.9869,1.9876,1.9972,1.9888,1.9893,1.9895,2.0101,2.0104,2.0107,0,0,0,0,0,0,1.971,1.9722,1.982,1.9773,1.9784,1.979,1.982,1.9819,1.9836,1.9847,1.9847,1.9829,1.986,1.9869,1.9932,1.9973,1.9895,1.9899,2.0098,2.0102,2.0106,2.0165,0,0,0,0,0,0,1.9706,1.9721,1.9753,1.9774,1.9787,1.9876,1.9822,1.9822,1.9844,1.9839,1.9863,1.9864,1.9859,1.9925,1.9936,1.9978,1.9902,2.0094,2.01,2.0105,2.0159,2.0171,2.0181,0,0,0,0,0,1.9702,1.9768,1.9755,1.9767,1.9827,1.9879,1.9886,1.9879,1.9848,1.9879,1.9886,1.9863,1.9966,1.9932,1.9944,1.9988,2.0091,2.0098,2.0104,2.0155,2.0169,2.018,0,0,0,0,0,0,1.9753,1.9771,1.9756,1.9831,1.9854,1.9871,1.9911,1.9894,1.9925,1.9919,1.9908,1.9914,1.998,1.999,1.9951,2.0067,2.0024,2.0033,2.0058,2.0071,2.0082,2.0078,1.9906,0,0,0,0,0,1.9772,1.9813,1.9827,1.9892,1.9903,1.9905,1.9928,1.992,1.9942,1.9952,1.9963,1.9985,2.0022,2.0047,2.0082,2.016,2.0164,2.0196,2.0206,2.0215,2.0223,2.0264,2.0278,2.0129,2.0129,2.0128,0,0,1.9814,1.9829,1.9856,1.9902,1.9919,1.996,1.9914,1.996,1.9991,1.9959,2.0019,2.0027,2.0051,2.0122,2.0153,2.0132,2.0265,2.0223,2.023,2.0234,2.0272,2.0286,2.0298,2.0133,2.0132,2.0132,0,0,1.9912,1.9927,1.9983,1.9999,2.0024,2.0025,2.0038,2.0058,2.0062,2.0122,2.0098,2.0134,2.0199,2.0217,2.0234,2.0336,2.0316,2.0348,2.0403,2.0442,2.0454,2.0464,2.05,2.0513,2.0356,2.0356,2.0356,0,1.9961,2.0023,2.0013,2.0061,2.0082,2.0054,2.0109,2.0126,2.0161,2.0175,2.0151,2.023,2.0245,2.0318,2.0343,2.0358,2.0372,2.0345,2.0453,2.0464,2.0473,2.0507,2.052,2.0359,2.0359,2.0359,2.0358,0,2.0081,2.0125,2.0166,2.02,2.0225,2.0277,2.0274,2.03,2.029,2.0293,2.0353,2.0369,2.0406,2.0422,2.0413,2.0494,2.048,2.0455,2.0411,2.0491,2.0522,2.0535,2.0365,2.0363,2.0362,2.0361,0,0,2.0214,2.024,2.0256,2.027,2.0294,2.0328,2.0377,2.0413,2.0435,2.046,2.05,2.0555,2.0531,2.0551,2.0543,2.0577,2.0656,2.0548,2.0548,2.0567,2.0745,2.0763,2.0779,2.0642,2.0645,2.0647,2.0742,0,2.0312,2.0398,2.0389,2.0471,2.051,2.0483,2.0526,2.0545,2.0548,2.0581,2.0585,2.0623,2.0589,2.0601,2.0634,2.0639,2.0691,2.0632,2.0679,2.0681,2.0674,2.0795,2.0816,2.0905,2.0755,2.0757,2.0758,0,2.0438,2.0466,2.0552,2.0568,2.0585,2.0623,2.0654,2.0687,2.0707,2.0707,2.0728,2.0714,2.0762,2.0717,2.0783,2.0743,2.0762,2.0767,2.077,2.0775,2.0725,2.0802,2.0934,2.0947,2.0778,2.0776,2.0775,0,2.0525,2.0584,2.0643,2.0656,2.0677,2.0705,2.0715,2.0733,2.0754,2.0781,2.0795,2.0827,2.0845,2.087,2.0864,2.0832,2.0931,2.0886,2.0932,2.0932,2.0954,2.0953,2.109,2.0967,2.0966,2.0966,2.0966,0,2.0635,2.0688,2.0682,2.0718,2.0776,2.0765,2.0823,2.0829,2.0845,2.0881,2.086,2.0894,2.0884,2.0917,2.0913,2.0967,2.0976,2.0976,2.0975,2.0978,2.0978,2.0991,2.0984,2.097,2.0969,2.0968,2.0968,0,2.0743,2.0741,2.0802,2.0817,2.0822,2.0864,2.0876,2.0909,2.091,2.0956,2.0966,2.0967,2.1005,2.1001,2.1044,2.1041,2.1109,2.11,2.1102,2.11,2.1145,2.1141,2.1296,2.1315,2.1179,2.118,2.1181,0,2.0813,2.0853,2.0872,2.0894,2.0906,2.0943,2.0964,2.0954,2.0977,2.1003,2.1033,2.1069,2.1097,2.1159,2.1163,2.1195,2.1186,2.1238,2.1191,2.1193,2.1187,2.1184,2.1188,2.1248,2.1249,2.1251,2.1252,0,2.0938,2.0935,2.0967,2.0998,2.1024,2.1048,2.107,2.1089,2.1082,2.1108,2.1147,2.1169,2.1212,2.1247,2.1277,2.1287,2.1268,2.1266,2.1278,2.1283,2.1282,2.1282,2.1127,2.1263,2.1262,2.1261,2.126,2.126,2.1029,2.1063,2.1081,2.1116,2.1131,2.1152,2.1184,2.1188,2.122,2.1254,2.1246,2.1289,2.1306,2.1345,2.1357,2.139,2.1371,2.1389,2.1394,2.1398,2.1403,2.1277,2.1396,2.1395,2.1395,2.1395,2.1394,0,2.1153,2.1162,2.1195,2.1226,2.1254,2.1233,2.1255,2.128,2.1318,2.1336,2.1364,2.1407,2.1441,2.1447,2.1479,2.1504,2.1496,2.1513,2.1511,2.1513,2.1418,2.1405,2.1519,2.1519,2.1519,2.1519,2.1519,2.1519,2.122,2.1276,2.1274,2.1336,2.1345,2.1387,2.1402,2.142,2.1434,2.1483,2.1511,2.1515,2.1528,2.1561,2.159,2.1591,2.1604,2.1624,2.1622,2.1533,2.152,2.1508,2.1495,2.1627,2.1627,2.1714,2.1714,2.1715]}]]